Regional Weather Roundup
Issued by NWS Wakefield, VA

Home | Current Version | Previous Version | Text Only | Print | Product List | Glossary On
Versions: 1 2 3 4 5 6 7 8 9 10 11 12 13 14 15 16 17 18 19 20 21 22 23 24 25 26 27 28 29 30 31 32 33 34 35 36 37 38 39 40 41 42 43 44 45 46 47 48 49 50
000
ASUS41 KAKQ 291515
RWRAKQ

REGIONAL WEATHER ROUNDUP
NATIONAL WEATHER SERVICE WAKEFIELD VA
1100 AM EDT FRI MAY 29 2015

Note: "fair" indicates few or no clouds below 12,000 feet with no
significant weather and/or obstructions to visibility. * = Denotes
station may not report precipitation (e.g., rain,snow,etc.),
thunder or fog.

VAZ042-051-052>054-056-291600-
NORTHERN VIRGINIA

CITY           SKY/WX    TMP DP  RH WIND       PRES   REMARKS
WASH NATIONAL  CLOUDY    76  66  71 NE7       30.28R
DULLES         PTSUNNY   76  66  71 E3        30.27S
FORT BELVOIR   CLOUDY    75  67  77 VRB1      30.27S
QUANTICO       CLOUDY    75  69  81 E8        30.27R
FREDERICKSBRG* PTSUNNY   79  73  81 E5        30.25S
STAFFORD*      CLOUDY    76  70  80 E5        30.30S
WARRENTON      CLOUDY    75  72  91 NE5       30.26S
CULPEPER*      CLOUDY    73  69  88 CALM      30.28R FOG
MANASSAS*      CLOUDY    73  70  88 E6        30.27S
LEESBURG*      MOSUNNY   77  64  65 NE5       30.28S
WINCHESTER     CLOUDY    77  55  47 CALM      30.28S
FRONT ROYAL*   FAIR      72  64  78 NE5       30.27S
LURAY*         FAIR      79  68  69 NE3       30.27S
$$

VAZ048-049-060>072-079>083-291600-
CENTRAL AND SOUTH CENTRAL VIRGINIA

CITY           SKY/WX    TMP DP  RH WIND       PRES   REMARKS
RICHMOND       MOSUNNY   82  68  62 VRB5      30.25S
CHESTERFIELD*  NOT AVBL
PETERSBURG*    MOSUNNY   81  74  77 CALM      30.26R
HANOVER        PTSUNNY   81  70  69 CALM      30.26S
TAPPAHANNOCK*  PTSUNNY   83  64  53 CALM      30.26S
QUINTON*       FAIR      79  68  70 CALM      30.25S
CHARLOTTSVILLE CLOUDY    74  68  81 NE5       30.27S HAZE
GORDONSVILLE*  CLOUDY    73  69  88 CALM      30.26S FOG
ORANGE*        CLOUDY    75  70  83 CALM      30.28S HAZE
LOUISA*        MOSUNNY   81  70  69 CALM      30.25S
BUMPASS*       FAIR      81  71  71 E3        30.25S
FARMVILLE*     SUNNY     81  67  63 CALM      30.24S
CREWE*         FAIR      81  70  69 CALM      30.25S
FORT PICKETT*  FAIR      80  70  71 CALM      30.25S
CHASE CITY*    FAIR      80  72  74 W6        30.25S
CLARKSVILLE*   PTSUNNY   79  68  69 W3        30.25S
SOUTH HILL*    PTSUNNY   78  67  68 CALM      30.31S
LAWRENCEVILLE* FAIR      79  70  73 W3        30.25S
EMPORIA*       SUNNY     79  64  61 SE6       30.27S
$$

VAZ088>098-291600-
SOUTHEAST VIRGINIA

CITY           SKY/WX    TMP DP  RH WIND       PRES   REMARKS
NORFOLK        MOSUNNY   81  61  50 N6        30.26S
VIRGINIA BEACH MOSUNNY   84  60  44 VRB5      30.26R
NORFOLK NAVAL  MOSUNNY   86  65  49 VRB5      30.27S
WEST POINT*    SUNNY     83  62  49 SE3       30.27S
SALUDA*        FAIR      79  69  72 NW7       30.25S
NEWPORT NEWS   PTSUNNY   82  66  58 CALM      30.26S
LANGLEY AFB    MOSUNNY   80  66  62 VRB2      30.25S
FORT EUSTIS    SUNNY     78  66  65 VRB3      30.24S
WILLIAMSBURG*  SUNNY     82  70  65 S5        30.27R
HR EXEC AP*    PTSUNNY   81  64  57 E5        30.28R
FRANKLIN*      CLOUDY    80  65  59 SE3       30.27R
WAKEFIELD      MOSUNNY   81  66  60 CALM      30.26R
$$

VAZ020-022-025-037-045-291600-
WEST CENTRAL AND SOUTHWEST VIRGINIA

CITY           SKY/WX    TMP DP  RH WIND       PRES   REMARKS
STAUNTON*      MOSUNNY   78  67  68 CALM      30.30F
WAYNESBORO*    CLOUDY    75  66  75 E5        30.29S
HOT SPRINGS VA PTSUNNY   66  64  92 SE7       30.37R
LYNCHBURG      MOSUNNY   80  65  59 E7        30.28S
DANVILLE       SUNNY     81  68  64 VRB3      30.26S
SOUTH BOSTON*  PTSUNNY   79  67  67 MISG      30.25S
MARTINSVILLE   PTSUNNY   80  67  65 CALM      30.29S
ROANOKE        MOSUNNY   78  64  61 CALM      30.29S
BLACKSBURG     CLOUDY    76  65  70 CALM      30.34S
DUBLIN*        CLOUDY    75  66  75 CALM      30.32F
MARION*        SUNNY     74  64  70 NE6       30.34S
HILLSVILLE*    NOT AVBL
RICHLANDS*     FAIR      74  63  69 CALM      30.31R
WISE*          CLOUDY    72  61  68 SW5       30.32R
ABINGDON*      MOSUNNY   80  60  51 CALM      30.28S
$$

MDZ021>025-VAZ099-100-291600-
SOUTHERN MARYLAND AND THE DELMARVA PENINSULA

CITY           SKY/WX    TMP DP  RH WIND       PRES   REMARKS
PATUXENT RIVER MOSUNNY   77  67  71 E7        30.26R
BAY BRIDGE APT   N/A    N/A N/A N/A NE6       30.28S
LEONARDTOWN    MOSUNNY   79  68  69 NE7       30.27S
DOVER          MOSUNNY   72  63  72 E9        30.26S
GEORGETOWN     SUNNY     78  66  66 E7        30.28R
EASTON         PTSUNNY   77  68  73 E8        30.31
CAMBRIDGE      CLOUDY    77  68  73 E3        30.26S
SALISBURY      SUNNY     80  67  64 CALM      30.26S
OCEAN CITY     SUNNY     73  65  75 SE7       30.27S
WALLOPS ISLAND MOSUNNY   78  69  73 SE8       30.27S
ACCOMACK*      MOSUNNY   81  68  65 CALM      30.26S
$$

NCZ012>017-030>032-291600-
NORTH CENTRAL AND EASTERN NORTH CAROLINA

CITY           SKY/WX    TMP DP  RH WIND       PRES   REMARKS
ROANOKE RAPIDS FAIR      79  64  61 CALM      30.25F
RALEIGH        PTSUNNY   79  65  62 CALM      30.26S
ELIZABETH CITY SUNNY     79  67  66 E7        30.26S
AHOSKIE*       SUNNY     77  64  64 CALM      30.26S
EDENTON*       SUNNY     78  62  57 CALM      30.26S
CURRITUCK*     MOSUNNY   79  62  56 E7        30.27S
KILL DEVIL HLS SUNNY     76  64  65 NE7       30.27R
MANTEO         SUNNY     76  66  69 NE8       30.27S
CAPE HATTERAS  PTSUNNY   80  66  62 SE8       30.26S
TARBORO*       FAIR      80  65  60 CALM      30.26F
GOLDSBORO      SUNNY     80  63  56 CALM      30.23F
WASHINGTON     SUNNY     78  62  56 E6        30.26F
GREENVILLE     SUNNY     81  59  47 NE3       30.26S
NEW BERN       SUNNY     80  62  54 E5        30.26F
WILMINGTON     SUNNY     80  64  58 E8        30.24S
$$

VAZ048-291600-
ELSEWHERE

CITY           SKY/WX    TMP DP  RH WIND       PRES   REMARKS
HARRISBURG PA  SUNNY     77  58  51 SE6       30.28F
BALTIMORE      CLOUDY    74  60  61 E9        30.28S
ANNAPOLIS      CLOUDY    71  61  70 NE7       30.28S
ANDREWS AFB    CLOUDY    71  67  87 E6        30.27S
PHILADELPHIA   MOSUNNY   78  57  48 E9        30.29S
HENDERSON NC   MOSUNNY   80  62  54 W5        30.27R
GREENSBORO     PTSUNNY   79  66  64 SW3       30.26S
ROCKY MOUNT    SUNNY     80  65  59 SE7       30.26S
$$

VAZ100-291600-
MARINE

STATION/POSITION TIME  TEMP    WIND        PRES    WAVE   SWELL
                       AIR SEA DIR/SP/G            HT/PER HT/PER
                 (UTC) (F)     (DEG/KT/KT) (MB)    (FT/S) (FT/S)
BRANDYWINE LGT   1400   68 65   80/ 11/ 13 1025.4R
CAPE MAY NJ      1400   69 69   80/ 16/ 19 1024.8R
LEWES DE         1400   64 65   80/  9/ 11 1025.2R
15NM E FENWICK I 1450   66 65              1025.1    3/ 9
OCEAN-CITY-INLET 1400   70 57  100/  3/  5 1024.7S
WACHAPREAGUE VA  1400   74 74  190/  6/  7 1024.6F
THOMAS POINT MD  1500   70 70   40/  8/  8 1025.7S
GOOSES REEF MD   1500   73 71   50/  6/  8 1025.8R   1/ 3
COVE POINT MD    1400   71     180/  4/  4 1025.3R
SOLOMONS ISLAND  1400      74                N/A
BISHOPS HEAD MD  1400   74 75  160/  6/  8 1024.4R
PINEY POINT MD   1400          150/  5/  5   N/A
CAMBRIDGE MD     1400   73 75   60/  6/  7 1024.7R
LEWISETTA VA     1400   74 74              1024.3R
RAPPAHANNOCK LGT 1400          170/  7/  8 1025.2S
STINGRAY PT      1500   73 74  150/  8/ 10 1024.8S   1
YORK RVR RNG VA  1400   77     230/  3/  4 1024.0R
YORKTOWN VA      1400   76 72   CALM  /  1 1024.3R
JAMESTOWN VA     1500   76 78  130/  4/  6 1023.5F
DOMINION TERM VA 1400   75     210/  3/  3 1024.7F
KIPTOPEKE VA     1400      75  180/  4/  5   N/A
CHES BAY BRIDGE  1400   73 70   40/  3/  3 1024.3R
CAPE HENRY VA    1400   74     100/  5/  7 1023.5R
CHESAPEAKE LGHT  1400   67     170/  4/  5 1025.6R
WILLOUBY STN VA  1400   73     300/  4/  4 1025.5R
CAPE HENRY BUOY  1428      70                N/A     2/ 9
1ST LANDING BUOY 1500      72              1024.7R
CAPE CHARLES BUO 1426      70                N/A     2/ 8   2/ 8
OFFSHORE WE BUOY 1411      67                N/A     3/ 9   3/ 9
64NM E OF VA BCH 1450   69 66   80/  4/  6 1025.1R   3/ 9   3/ 9
DUCK PIER NC     1400   72 54  100/  7/  7 1024.0R
44100 DUCK FRF   1424      70                N/A     2/ 8
44056 DUCK FRF   1411      66                N/A     2/ 9
OREGON INLET NC  1400   74 77   50/  7/  9 1024.8R
HATTERAS NC      1400   76 76   40/  6/ 10 1024.2R
DIAMOND SHLS NC  1450   75 76   40/ 10/ 12 1024.7R   3/ 9   3/ 9
CAPE LOOKOUT NC  1500   75      50/  9/ 10 1024.4R
$$


USA.gov is the U.S. government's official web portal to all federal, state and local government web resources and services.